London, United Kingdom

4:42 AM BST on June 28, 2017 (GMT +0100)
Heathrow

Weather History for EGLL - March, 2014

Change the Weather History Date:

Monday, March 10, 2014

  Actual Average Record
Temperature  
Mean Temperature 47 °F -  
Max Temperature 55 °F 52 °F 59 °F (1997)
Min Temperature 39 °F 39 °F 32 °F (1998)
Degree Days  
Heating Degree Days 18    
Moisture  
Dew Point 40 °F    
Average Humidity 73    
Maximum Humidity 87    
Minimum Humidity 57    
Precipitation  
Precipitation 0.00 in - - ()
Sea Level Pressure  
Sea Level Pressure 30.36 in    
Wind  
Wind Speed 5 mph ()    
Max Wind Speed 14 mph    
Max Gust Speed -    
Visibility 7.7 miles    
Events      
Averages and records for this station are not official NWS values.
T = Trace of Precipitation, MM = Missing Value Source: Averaged Metar Reports

Daily Weather History Graph

Daily Weather History Graph

Search for Another Location

Airport or City:

Trip Planner

Search our weather history database for the weather conditions in past years. The results will help you decide how hot, cold, wet, or windy it might be!

Date:

Astronomy

Mar. 10, 2014 Rise Set
Actual Time 6:27 AM GMT 5:57 PM GMT
Civil Twilight 5:54 AM GMT 6:30 PM GMT
Nautical Twilight 5:15 AM GMT 7:09 PM GMT
Astronomical Twilight 4:36 AM GMT 7:49 PM GMT
Moon 11:59 AM GMT (3/10) 2:57 AM GMT (3/10)
Length of Visible Light 12h 36m
Length of Day
11h 30m
Waxing Gibbous, 68% of the Moon is Illuminated
Mar 10
Waxing Gibbous
Mar 16
Full
Mar 24
Last Quarter
Mar 30
New
Apr 7
First Quarter

Hourly Weather History & Observations

Time (GMT) Temp. Windchill Dew Point Humidity Pressure Visibility Wind Dir Wind Speed Gust Speed Precip Events Conditions
12:00 AM 48 °F - 38 °F 60% 30.22 in 9 mi NNW 2.3 mph - -  
12:20 AM 46.4 °F - 39.2 °F 76% 30.21 in - North 2.3 mph - N/A   Clear
12:50 AM 44.6 °F 43.1 °F 37.4 °F 76% 30.21 in - North 3.5 mph - N/A   Clear
1:00 AM 46 °F - 38 °F 66% 30.22 in 7 mi North 2.3 mph - -  
1:20 AM 44.6 °F - 39.2 °F 81% 30.21 in 6.2 mi Calm Calm - N/A   Unknown
1:50 AM 46.4 °F - 39.2 °F 76% 30.21 in 6.2 mi Calm Calm - N/A   Unknown
2:00 AM 44 °F - 38 °F 71% 30.23 in 7 mi Calm Calm - -  
2:20 AM 42.8 °F - 37.4 °F 81% 30.21 in 6.2 mi Calm Calm - N/A   Unknown
2:50 AM 42.8 °F - 37.4 °F 81% 30.21 in - Variable 2.3 mph - N/A   Clear
3:00 AM 43 °F - 37 °F 74% 30.23 in 7 mi West 3.5 mph - -  
3:20 AM 42.8 °F - 37.4 °F 81% 30.21 in - Variable 2.3 mph - N/A   Clear
3:50 AM 42.8 °F - 37.4 °F 81% 30.24 in - Calm Calm - N/A   Clear
4:00 AM 41 °F - 36 °F 77% 30.24 in 6 mi NNW 1.2 mph - -   Light Haze
4:20 AM 41.0 °F - 37.4 °F 87% 30.24 in - North 2.3 mph - N/A   Clear
4:50 AM 41.0 °F 39.0 °F 37.4 °F 87% 30.24 in - North 3.5 mph - N/A   Clear
5:00 AM 40 °F - 36 °F 82% 30.26 in 6 mi NNW 3.5 mph - -   Light Haze
5:20 AM 41.0 °F - 37.4 °F 87% 30.27 in - Variable 2.3 mph - N/A   Clear
5:50 AM 41.0 °F - 35.6 °F 81% 30.27 in - Calm Calm - N/A   Clear
6:00 AM 40 °F - 36 °F 82% 30.29 in 6 mi NW 3.5 mph - -   Light Haze
6:20 AM 42.8 °F - 37.4 °F 81% 30.27 in 5.6 mi NW 2.3 mph - N/A   Unknown
6:50 AM 44.6 °F 43.1 °F 37.4 °F 76% 30.30 in 5.6 mi WNW 3.5 mph - N/A   Unknown
7:00 AM 40 °F - 36 °F 80% 30.31 in 4 mi NW 3.5 mph - -   Light Haze
7:20 AM 44.6 °F - 39.2 °F 81% 30.30 in 5.6 mi Variable 2.3 mph - N/A   Unknown
7:50 AM 46.4 °F - 39.2 °F 76% 30.33 in 5.6 mi Calm Calm - N/A   Unknown
8:00 AM 44 °F - 38 °F 73% 30.33 in 6 mi NW 2.3 mph - -  
8:20 AM 46.4 °F - 41.0 °F 81% 30.33 in 5.0 mi Calm Calm - N/A   Unknown
8:50 AM 50.0 °F - 44.6 °F 82% 30.33 in 5.0 mi NNE 5.8 mph - N/A   Unknown
9:00 AM 51 °F - 43 °F 66% 30.34 in 4 mi NNE 5.8 mph - -   Light Haze
9:20 AM 53.6 °F - 46.4 °F 77% 30.33 in 4.3 mi NE 5.8 mph - N/A   Unknown
9:50 AM 55.4 °F - 46.4 °F 72% 30.33 in 5.0 mi NNE 9.2 mph - N/A   Unknown
10:00 AM 55 °F - 45 °F 59% 30.35 in 6 mi NNE 10.4 mph - -   Light Haze
10:20 AM 55.4 °F - 46.4 °F 72% 30.36 in 5.6 mi NNE 9.2 mph - N/A   Unknown
10:50 AM 55.4 °F - 46.4 °F 72% 30.36 in 6.2 mi NNE 9.2 mph - N/A   Mostly Cloudy
11:00 AM 54 °F - 44 °F 61% 30.37 in 6 mi North 11.5 mph - -   Mostly Cloudy
11:20 AM 53.6 °F - 46.4 °F 77% 30.36 in 5.0 mi North 11.5 mph - N/A   Mostly Cloudy
11:50 AM 53.6 °F - 46.4 °F 77% 30.39 in 4.3 mi North 11.5 mph - N/A   Mostly Cloudy
12:00 PM 52 °F - 44 °F 66% 30.38 in 5 mi NNE 11.5 mph - -   Light Haze
12:20 PM 51.8 °F - 44.6 °F 76% 30.39 in 5.6 mi NNE 11.5 mph - N/A   Mostly Cloudy
12:50 PM 53.6 °F - 44.6 °F 72% 30.39 in 6.2 mi NE 10.4 mph - N/A   Mostly Cloudy
1:00 PM 54 °F - 45 °F 62% 30.38 in 13 mi NE 9.2 mph - -   Mostly Cloudy
1:20 PM 53.6 °F - 44.6 °F 72% 30.36 in 6.2 mi NNE 10.4 mph - N/A   Mostly Cloudy
1:50 PM 53.6 °F - 44.6 °F 72% 30.36 in 6.2 mi ENE 12.7 mph - N/A   Mostly Cloudy
2:00 PM 53 °F - 42 °F 57% 30.38 in 19 mi NNE 13.8 mph - -   Mostly Cloudy
2:20 PM 53.6 °F - 44.6 °F 72% 30.36 in 6.2 mi NE 11.5 mph - N/A   Mostly Cloudy
2:50 PM 51.8 °F - 42.8 °F 71% 30.39 in 6.2 mi North 10.4 mph - N/A   Mostly Cloudy
3:00 PM 52 °F - 42 °F 58% 30.39 in 18 mi NNE 12.7 mph - -   Overcast
3:20 PM 51.8 °F - 42.8 °F 71% 30.39 in 6.2 mi NE 10.4 mph - N/A   Scattered Clouds
3:50 PM 51.8 °F - 42.8 °F 71% 30.39 in 6.2 mi NNE 9.2 mph - N/A   Scattered Clouds
4:00 PM 51 °F - 41 °F 58% 30.40 in 19 mi NNE 11.5 mph - -   Mostly Cloudy
4:20 PM 50.0 °F - 41.0 °F 71% 30.42 in 6.2 mi NNE 12.7 mph - N/A   Mostly Cloudy
4:50 PM 48.2 °F - 41.0 °F 76% 30.42 in 6.2 mi North 10.4 mph - N/A   Mostly Cloudy
5:00 PM 48 °F - 39 °F 63% 30.44 in 19 mi North 11.5 mph - -   Overcast
5:20 PM 48.2 °F - 41.0 °F 76% 30.45 in 6.2 mi NNE 8.1 mph - N/A   Mostly Cloudy
5:50 PM 48.2 °F - 41.0 °F 76% 30.45 in 6.2 mi NNE 9.2 mph - N/A   Mostly Cloudy
6:00 PM 47 °F - 39 °F 65% 30.46 in 25 mi NNE 10.4 mph - -   Overcast
6:20 PM 46.4 °F 41.9 °F 39.2 °F 76% 30.45 in 6.2 mi NNE 9.2 mph - N/A   Mostly Cloudy
6:50 PM 46.4 °F 41.1 °F 39.2 °F 76% 30.48 in 6.2 mi NE 11.5 mph - N/A   Mostly Cloudy
7:00 PM 47 °F - 38 °F 62% 30.48 in 19 mi NE 11.5 mph - -   Mostly Cloudy
7:20 PM 46.4 °F 42.4 °F 39.2 °F 76% 30.48 in 6.2 mi NNE 8.1 mph - N/A   Mostly Cloudy
7:50 PM 46.4 °F 41.1 °F 39.2 °F 76% 30.48 in 6.2 mi NE 11.5 mph - N/A   Mostly Cloudy
8:00 PM 46 °F - 37 °F 62% 30.49 in 22 mi NE 12.7 mph - -   Mostly Cloudy
8:20 PM 44.6 °F 39.7 °F 39.2 °F 81% 30.48 in 6.2 mi NE 9.2 mph - N/A   Mostly Cloudy
8:50 PM 44.6 °F 40.2 °F 37.4 °F 76% 30.51 in 6.2 mi NE 8.1 mph - N/A   Scattered Clouds
9:00 PM 45 °F - 37 °F 64% 30.50 in 17 mi NE 9.2 mph - -   Mostly Cloudy
9:20 PM 44.6 °F 40.2 °F 37.4 °F 76% 30.51 in 6.2 mi NE 8.1 mph - N/A   Mostly Cloudy
9:50 PM 44.6 °F 39.7 °F 37.4 °F 76% 30.51 in 6.2 mi NE 9.2 mph - N/A   Mostly Cloudy
10:00 PM 45 °F - 36 °F 62% 30.51 in 19 mi NE 10.4 mph - -   Overcast
10:20 PM 44.6 °F 39.7 °F 37.4 °F 76% 30.51 in 6.2 mi NE 9.2 mph - N/A   Mostly Cloudy
10:50 PM 44.6 °F 39.2 °F 37.4 °F 76% 30.51 in 6.2 mi NE 10.4 mph - N/A   Mostly Cloudy
11:00 PM 44 °F - 36 °F 64% 30.51 in 19 mi NE 12.7 mph - -   Overcast
11:20 PM 44.6 °F 39.7 °F 37.4 °F 76% 30.51 in 6.2 mi NE 9.2 mph - N/A   Mostly Cloudy
11:50 PM 44.6 °F 38.8 °F 37.4 °F 76% 30.51 in 6.2 mi ENE 11.5 mph - N/A   Mostly Cloudy